SCP
0 0 0 0 0 0 0 0 0 0 0 -0 -0 -0 -0 0 0 -0 -0 0 0 0 0 0 0 0 0 0 0 0 0 0 0 0 0 0 0 0 0 0 0 0 0 0
0 0 0 0 0 0 0 0 -0 -0 0 0 0 -0 -0 -0 0 0 0 0 0 0 0 -0 -0 0 0 0 0 0 0 0 0 0 0 0 0 0 0 0 0 0 0 0
0 0 0 0 0 0 0 0 0 -0 -0 -0 -0 -0 -0 -0 -0 0 0 0 0 0 0 0 0 0 0 0 0 0 1 1 0 0 0 0 0 0 0 0 0 0 0 0
0 0 0 0 0 0 -0 0 0 0 -0 -0 -0 -0 -0 -0 0 0 0 0 0 0 0 0 0 0 0 0 0 0 0 0 0 0 0 0 0 0 0 0 0 0 0 0
0 0 0 0 0 0 0 0 0 0 0 0 -0 -0 -0 0 0 0 0 0 0 0 0 0 0 0 0 0 0 0 0 0 0 0 0 0 0 0 0 0 0 0 0 0
0 -0 0 0 0 0 0 0 0 0 0 -0 0 0 -0 -0 -0 0 0 0 0 0 0 0 0 0 0 0 0 0 0 0 0 0 0 0 0 0 0 0 0 0 0 0
0 0 0 -0 0 0 0 -0 -0 0 -0 -0 0 0 0 0 0 0 0 0 0 0 0 0 0 0 0 0 0 0 0 0 0 0 0 0 0 0 0 0 0 0 0 0
0 0 0 0 0 -0 -0 0 0 -0 0 0 0 0 0 0 0 0 0 0 0 0 0 0 0 0 0 0 0 0 0 0 0 0 0 0 0 0 0 0 0 0 0 0
0 0 0 0 0 0 0 0 0 0 0 0 0 0 0 0 0 0 0 0 0 0 0 0 0 0 0 0 0 0 0 0 0 0 0 0 0 0 0 0 0 0 0 0
0 0 0 0 0 0 0 0 0 0 0 0 0 0 0 0 0 0 0 0 0 0 0 0 0 0 0 0 0 0 0 0 0 0 0 0 0 0 0 0 0 0 0 0
0 0 0 0 0 0 0 0 0 0 0 0 0 0 0 -0 -0 -0 -0 0 -0 0 0 0 0 0 0 0 0 0 0 0 0 0 0 0 0 0 0 0 0 0 0 0
0 0 0 0 0 0 0 0 0 0 0 0 0 0 0 0 -0 -0 -0 -0 0 -0 -0 0 0 0 0 0 0 0 0 0 0 0 0 0 0 0 0 0 0 0 0 0
0 0 0 0 0 0 0 0 0 0 0 0 0 0 0 0 -0 -0 -0 -0 -0 0 -0 -0 -0 0 0 0 0 0 0 0 0 0 0 0 0 0 0 0 0 0 0 0
0 0 0 0 0 0 0 0 0 0 0 0 0 0 0 0 0 -0 -0 -0 -0 -0 -0 -0 -0 0 0 0 0 0 0 0 0 0 0 0 0 0 0 0 0 0 0 0
0 0 0 0 0 0 0 0 0 0 0 0 0 0 0 0 0 0 -0 -0 -0 -0 -0 -0 0 0 -0 0 0 0 0 0 0 0 0 0 0 0 0 0 0 0 0 0
0 0 0 0 0 0 0 0 0 0 0 0 0 0 -0 0 0 0 -0 0 -0 -0 -0 -0 -0 -0 0 0 -0 0 0 0 0 0 0 0 0 0 0 0 0 0 0 0
0 0 0 0 0 0 0 0 -0 0 0 0 0 0 0 0 0 0 0 0 -0 -0 -0 -0 -0 -0 -0 0 -0 -0 -0 0 0 0 0 0 0 0 0 0 0 0 0 0
0 0 0 0 0 0 0 0 0 0 0 0 0 0 0 0 0 0 0 -0 -0 -0 -0 -0 -0 -0 -0 -0 -0 -0 -0 -0 0 0 0 0 0 0 0 0 0 0 0 0
0 0 0 0 0 0 0 0 0 0 0 0 0 0 0 0 0 0 0 -0 -0 -0 -0 -0 -0 -0 -0 -0 -0 -0 -0 -0 0 0 0 0 0 0 0 0 0 0 0 0
0 0 0 0 0 0 0 0 0 0 0 0 0 0 0 0 0 0 -0 -0 -0 -0 0 -0 -0 -0 -0 0 -0 -0 -0 -0 0 0 0 0 0 0 0 0 0 0 0 0
0 0 0 0 0 0 0 0 0 0 0 0 0 0 0 0 0 0 0 0 0 0 0 -0 -0 -0 -0 -0 -0 0 -0 -0 -0 0 0 0 0 0 0 0 0 0 0 0
0 0 0 0 0 0 0 0 0 0 0 0 0 0 0 0 0 0 0 0 0 0 0 0 -0 -0 0 -0 -0 0 0 -0 0 0 0 0 0 0 0 0 0 0 0 0
0 0 0 0 0 0 0 0 0 0 0 0 0 0 0 0 0 0 0 0 0 0 0 0 0 -0 -0 -0 -0 -0 0 0 0 0 0 0 0 0 0 0 0 0 0 0
0 0 0 0 0 0 0 0 0 0 0 0 0 0 0 0 0 0 0 0 0 0 0 0 0 0 -0 -0 -0 -0 -0 -0 0 0 0 0 0 0 0 0 0 0 0 0
0 0 0 0 0 0 0 0 0 0 0 0 0 0 0 0 0 0 0 0 0 0 0 0 0 0 0 -0 -0 -0 -0 -0 -0 0 0 0 0 0 0 0 0 0 0 0
0 0 0 0 0 0 0 0 0 0 0 0 0 0 0 0 0 0 0 0 0 0 0 0 0 0 0 0 0 0 -0 -0 -0 -0 -0 0 0 0 0 0 0 0 0 0
Wind_Speed_500mb
17 19 16 19 10 10 10 7 12 15 18 10 16 33 27 46 47 48 51 65 75 78 75 64 53 48 73 82 81 83 81 80 81 85 83 75 71 70 68 68 70 64 57 57
13 19 14 13 11 11 12 12 12 13 12 15 28 44 31 31 34 43 48 48 53 64 74 74 69 60 59 75 90 91 88 87 90 90 83 76 75 75 71 77 75 72 68 61
12 7 18 12 17 26 9 12 18 18 17 18 19 18 6 8 9 44 61 59 61 58 60 55 49 48 49 63 78 93 94 90 94 94 89 88 87 84 83 84 79 78 70 58
8 18 13 16 13 19 7 24 17 18 18 8 16 16 6 7 26 39 57 64 64 75 65 59 57 48 43 45 66 79 92 95 92 97 98 98 94 93 94 89 79 79 73 66
7 15 15 18 18 14 7 31 25 24 12 7 3 8 12 25 33 41 52 64 68 69 73 70 68 58 45 38 43 64 81 94 98 100 102 103 102 93 86 85 79 76 76 67
7 10 11 8 20 6 29 17 12 5 5 6 10 8 7 12 15 31 46 57 67 79 81 81 69 61 48 35 32 43 65 89 98 105 106 104 106 102 94 92 90 78 77 69
14 7 3 24 12 9 39 12 9 12 2 8 8 9 10 18 28 28 35 49 59 70 78 90 91 80 68 49 32 28 50 71 93 103 106 105 107 105 99 93 91 82 78 77
11 12 16 26 5 9 13 8 7 9 6 10 23 10 11 26 40 52 53 59 70 74 79 89 88 88 79 65 45 28 35 55 73 90 100 99 104 100 101 94 90 88 84 82
6 10 8 15 15 6 16 8 9 6 12 11 9 5 7 41 40 63 71 77 75 77 80 79 86 85 87 78 59 40 28 38 56 74 88 95 97 99 99 97 91 89 85 76
3 9 5 11 14 21 5 12 10 8 11 11 5 6 10 32 37 38 49 65 73 80 87 89 90 82 83 79 72 53 32 29 41 59 74 84 86 89 89 89 89 85 83 80
4 7 12 9 10 7 9 6 7 4 1 7 11 9 7 9 21 26 42 53 61 70 79 86 86 92 76 75 72 63 47 30 29 42 57 69 76 83 84 83 80 85 84 71
3 7 9 8 10 9 4 4 6 7 12 7 11 22 16 27 28 34 40 43 58 68 73 85 85 90 99 78 72 66 58 41 25 31 44 58 68 71 71 72 69 77 68 66
3 3 7 17 12 8 2 7 12 2 1 21 8 19 20 72 43 41 45 49 58 60 68 73 87 97 101 103 78 65 55 53 38 23 34 45 54 61 65 68 67 71 67 63
17 9 14 12 13 9 23 15 15 9 6 21 29 52 43 42 23 45 51 54 49 52 60 69 78 78 94 99 102 73 57 44 44 33 21 31 40 47 55 59 61 62 66 62
12 10 8 13 23 30 35 34 35 24 30 17 37 34 47 40 25 38 45 52 48 55 63 67 68 74 75 88 96 96 59 45 37 38 29 20 28 37 44 53 55 57 56 56
11 8 3 13 25 32 30 34 34 33 36 32 40 38 37 26 39 30 44 56 52 50 62 60 63 71 75 69 80 87 86 50 29 30 31 27 23 25 37 46 46 54 52 43
9 6 4 12 7 11 13 20 28 11 13 15 18 19 28 19 21 31 48 58 48 54 59 59 63 70 73 72 62 77 81 75 38 24 25 23 25 34 40 40 43 45 43 50
19 7 7 9 7 5 12 8 13 22 28 23 19 27 32 43 40 41 49 43 46 59 62 58 61 69 69 67 60 55 70 76 58 29 25 22 21 23 34 43 49 49 54 62
39 13 4 5 7 15 14 15 11 13 18 13 22 29 40 44 29 43 48 48 57 60 52 58 62 70 69 66 63 56 50 67 72 47 27 28 23 26 33 41 47 55 58 55
6 14 9 5 7 13 12 8 1 5 17 27 26 27 30 21 16 26 66 71 68 54 56 59 61 68 67 62 61 58 51 47 62 66 41 27 35 32 31 35 45 50 51 54
6 1 20 19 11 19 19 33 4 8 12 4 20 35 44 25 45 64 67 66 62 64 63 67 59 65 68 60 60 61 57 51 47 55 60 35 33 40 32 32 42 48 52 51
15 12 8 4 2 24 30 2 13 12 24 39 50 58 54 61 67 72 72 71 71 69 70 67 56 57 59 60 60 60 58 58 52 46 52 56 34 40 43 45 48 50 55 56
13 17 10 18 17 19 18 30 38 62 64 63 61 67 61 64 70 78 75 69 67 65 63 58 56 54 53 58 61 64 63 62 61 46 42 47 46 31 42 54 60 64 66 66
8 25 17 21 50 60 76 82 72 70 69 71 62 64 72 73 73 71 68 64 61 61 60 58 60 64 68 63 63 71 68 65 60 54 45 42 42 38 37 46 63 62 68 69
23 16 18 35 66 66 71 75 73 58 57 71 69 74 70 67 68 60 61 60 59 60 64 66 66 66 69 70 69 64 67 60 60 55 49 41 40 36 38 43 61 62 68 72
38 39 25 33 64 47 57 66 68 67 72 69 73 76 65 58 58 56 57 58 61 61 62 64 61 60 58 57 53 47 53 56 53 56 51 45 40 42 39 47 54 65 75 88
Wind_Direction_500mb
26 66 38 335 334 294 276 251 264 270 268 296 261 276 276 288 290 286 281 286 290 292 293 292 286 272 252 248 244 240 236 232 226 222 220 220 222 221 219 220 222 225 228 227
43 62 351 324 5 349 344 302 308 290 340 330 297 291 285 258 273 283 298 310 306 310 312 313 305 291 269 251 245 243 239 234 230 228 227 223 221 217 218 222 222 222 226 229
68 45 341 26 24 13 335 2 336 307 318 277 311 287 71 282 257 31 14 3 359 353 345 333 324 306 290 267 249 242 240 236 234 232 229 225 224 220 220 221 226 219 226 222
55 1 9 34 21 357 17 338 310 300 330 313 42 295 23 305 32 21 11 8 0 357 353 349 339 324 304 281 264 247 240 237 236 234 233 231 225 226 223 225 224 228 233 223
328 358 1 36 348 329 328 311 284 272 251 312 317 272 298 32 11 357 356 356 359 359 360 357 352 338 319 290 266 256 243 238 236 235 233 232 233 233 231 228 220 223 218 223
345 320 57 311 309 337 341 318 298 170 236 234 18 319 45 25 358 342 351 356 357 358 359 5 1 355 338 310 271 256 252 242 237 237 235 234 232 232 231 226 217 222 218 218
333 13 33 9 342 333 354 15 354 3 5 225 0 347 33 30 5 344 333 349 357 1 1 6 9 3 356 341 313 264 259 253 244 238 235 235 234 235 235 235 225 219 218 217
15 336 20 344 23 289 328 3 129 283 304 295 329 251 50 8 357 347 357 357 355 358 357 1 8 9 2 356 341 306 273 261 252 242 235 232 233 231 231 231 230 221 220 214
38 283 351 334 336 33 310 31 184 227 251 252 226 175 303 7 14 6 1 2 359 359 355 352 2 7 7 359 354 338 301 269 257 244 235 231 232 230 230 227 226 219 214 218
259 309 343 302 6 16 95 5 19 352 324 309 294 61 4 3 10 5 1 3 357 359 357 354 358 4 9 4 359 353 333 302 269 249 237 233 232 230 230 225 224 219 218 210
119 115 300 338 37 323 20 48 26 148 358 305 325 285 153 24 10 357 353 355 358 355 358 354 357 3 5 5 6 1 352 326 290 261 243 235 231 227 229 223 223 219 212 209
317 155 284 278 283 255 127 121 136 124 289 244 252 250 233 16 6 357 336 340 347 7 2 1 1 4 8 6 6 5 360 348 308 267 249 237 233 226 224 225 223 221 207 209
268 314 349 345 358 1 50 329 288 252 276 239 238 268 339 328 345 343 339 333 344 351 2 356 4 6 7 9 3 2 2 356 340 296 259 247 238 229 224 225 219 210 210 202
227 203 173 205 223 242 290 272 252 159 246 277 253 282 298 299 324 327 323 336 343 345 347 1 357 356 2 3 4 359 358 358 350 332 290 255 243 235 228 220 211 204 197 196
161 205 221 242 263 272 266 271 270 253 241 248 280 283 284 289 288 302 315 334 335 343 347 354 353 357 354 357 358 359 353 352 343 342 316 290 255 234 225 218 209 203 197 196
192 254 163 274 238 258 269 264 256 255 262 253 260 267 271 256 277 300 315 325 326 327 338 341 345 349 351 355 352 356 354 346 328 314 316 294 262 247 216 206 196 196 191 193
218 191 73 268 334 328 301 237 239 225 223 218 252 258 292 286 268 315 318 317 317 328 329 331 338 342 345 346 350 350 353 349 327 314 295 280 276 244 228 207 203 208 206 211
240 173 187 271 20 307 243 268 232 230 257 261 274 291 289 278 274 316 320 314 315 317 324 327 329 333 338 342 343 344 347 347 348 315 303 264 242 235 226 217 211 209 211 208
221 204 222 226 198 294 275 259 206 184 271 249 270 284 290 300 310 303 310 318 311 318 317 323 324 329 334 339 338 336 342 343 346 347 308 283 231 227 227 227 220 215 208 202
95 197 185 109 193 237 238 249 296 122 280 247 267 277 297 306 303 293 308 310 312 311 318 322 318 321 327 333 335 335 338 337 340 345 336 287 257 233 225 226 230 221 212 207
118 174 215 224 245 273 246 251 308 104 255 261 304 299 298 289 285 296 309 311 313 313 315 318 316 316 319 323 328 331 333 337 325 331 339 317 258 239 219 225 223 226 218 210
183 179 193 93 209 274 243 204 186 240 297 304 299 296 292 298 304 308 308 308 310 311 311 312 312 312 310 313 319 321 328 328 327 317 327 330 299 254 234 222 220 217 220 213
256 209 216 197 222 244 234 249 273 296 290 293 294 298 298 297 299 306 307 308 308 309 312 312 310 306 305 309 312 315 318 320 320 321 310 320 315 292 251 232 224 224 219 213
254 221 237 252 256 259 267 272 279 286 285 291 295 296 299 295 301 302 305 307 308 308 308 307 307 305 306 307 305 306 308 309 313 316 314 303 312 301 276 244 229 228 222 216
241 179 232 249 262 273 269 269 276 288 290 294 294 293 295 295 298 301 301 302 301 301 301 301 303 303 302 302 300 300 300 303 307 309 310 309 303 296 280 263 238 225 226 226
239 246 244 256 263 263 276 283 287 284 286 289 292 297 298 295 296 297 295 296 297 299 302 303 306 306 306 306 306 303 296 301 303 305 307 306 303 295 278 266 262 240 229 230
Wind_Speed_850mb
17 19 16 19 10 10 10 7 12 15 18 10 16 33 27 46 47 48 51 65 75 78 75 64 53 48 73 82 81 83 81 80 81 85 83 75 71 70 68 68 70 64 57 57
13 19 14 13 11 11 12 12 12 13 12 15 28 44 31 31 34 43 48 48 53 64 74 74 69 60 59 75 90 91 88 87 90 90 83 76 75 75 71 77 75 72 68 61
12 7 18 12 17 26 9 12 18 18 17 18 19 18 6 8 9 44 61 59 61 58 60 55 49 48 49 63 78 93 94 90 94 94 89 88 87 84 83 84 79 78 70 58
8 18 13 16 13 19 7 24 17 18 18 8 16 16 6 7 26 39 57 64 64 75 65 59 57 48 43 45 66 79 92 95 92 97 98 98 94 93 94 89 79 79 73 66
7 15 15 18 18 14 7 31 25 24 12 7 3 8 12 25 33 41 52 64 68 69 73 70 68 58 45 38 43 64 81 94 98 100 102 103 102 93 86 85 79 76 76 67
7 10 11 8 20 6 29 17 12 5 5 6 10 8 7 12 15 31 46 57 67 79 81 81 69 61 48 35 32 43 65 89 98 105 106 104 106 102 94 92 90 78 77 69
14 7 3 24 12 9 39 12 9 12 2 8 8 9 10 18 28 28 35 49 59 70 78 90 91 80 68 49 32 28 50 71 93 103 106 105 107 105 99 93 91 82 78 77
11 12 16 26 5 9 13 8 7 9 6 10 23 10 11 26 40 52 53 59 70 74 79 89 88 88 79 65 45 28 35 55 73 90 100 99 104 100 101 94 90 88 84 82
6 10 8 15 15 6 16 8 9 6 12 11 9 5 7 41 40 63 71 77 75 77 80 79 86 85 87 78 59 40 28 38 56 74 88 95 97 99 99 97 91 89 85 76
3 9 5 11 14 21 5 12 10 8 11 11 5 6 10 32 37 38 49 65 73 80 87 89 90 82 83 79 72 53 32 29 41 59 74 84 86 89 89 89 89 85 83 80
4 7 12 9 10 7 9 6 7 4 1 7 11 9 7 9 21 26 42 53 61 70 79 86 86 92 76 75 72 63 47 30 29 42 57 69 76 83 84 83 80 85 84 71
3 7 9 8 10 9 4 4 6 7 12 7 11 22 16 27 28 34 40 43 58 68 73 85 85 90 99 78 72 66 58 41 25 31 44 58 68 71 71 72 69 77 68 66
3 3 7 17 12 8 2 7 12 2 1 21 8 19 20 72 43 41 45 49 58 60 68 73 87 97 101 103 78 65 55 53 38 23 34 45 54 61 65 68 67 71 67 63
17 9 14 12 13 9 23 15 15 9 6 21 29 52 43 42 23 45 51 54 49 52 60 69 78 78 94 99 102 73 57 44 44 33 21 31 40 47 55 59 61 62 66 62
12 10 8 13 23 30 35 34 35 24 30 17 37 34 47 40 25 38 45 52 48 55 63 67 68 74 75 88 96 96 59 45 37 38 29 20 28 37 44 53 55 57 56 56
11 8 3 13 25 32 30 34 34 33 36 32 40 38 37 26 39 30 44 56 52 50 62 60 63 71 75 69 80 87 86 50 29 30 31 27 23 25 37 46 46 54 52 43
9 6 4 12 7 11 13 20 28 11 13 15 18 19 28 19 21 31 48 58 48 54 59 59 63 70 73 72 62 77 81 75 38 24 25 23 25 34 40 40 43 45 43 50
19 7 7 9 7 5 12 8 13 22 28 23 19 27 32 43 40 41 49 43 46 59 62 58 61 69 69 67 60 55 70 76 58 29 25 22 21 23 34 43 49 49 54 62
39 13 4 5 7 15 14 15 11 13 18 13 22 29 40 44 29 43 48 48 57 60 52 58 62 70 69 66 63 56 50 67 72 47 27 28 23 26 33 41 47 55 58 55
6 14 9 5 7 13 12 8 1 5 17 27 26 27 30 21 16 26 66 71 68 54 56 59 61 68 67 62 61 58 51 47 62 66 41 27 35 32 31 35 45 50 51 54
6 1 20 19 11 19 19 33 4 8 12 4 20 35 44 25 45 64 67 66 62 64 63 67 59 65 68 60 60 61 57 51 47 55 60 35 33 40 32 32 42 48 52 51
15 12 8 4 2 24 30 2 13 12 24 39 50 58 54 61 67 72 72 71 71 69 70 67 56 57 59 60 60 60 58 58 52 46 52 56 34 40 43 45 48 50 55 56
13 17 10 18 17 19 18 30 38 62 64 63 61 67 61 64 70 78 75 69 67 65 63 58 56 54 53 58 61 64 63 62 61 46 42 47 46 31 42 54 60 64 66 66
8 25 17 21 50 60 76 82 72 70 69 71 62 64 72 73 73 71 68 64 61 61 60 58 60 64 68 63 63 71 68 65 60 54 45 42 42 38 37 46 63 62 68 69
23 16 18 35 66 66 71 75 73 58 57 71 69 74 70 67 68 60 61 60 59 60 64 66 66 66 69 70 69 64 67 60 60 55 49 41 40 36 38 43 61 62 68 72
38 39 25 33 64 47 57 66 68 67 72 69 73 76 65 58 58 56 57 58 61 61 62 64 61 60 58 57 53 47 53 56 53 56 51 45 40 42 39 47 54 65 75 88
Wind_Direction_850mb
26 66 38 335 334 294 276 251 264 270 268 296 261 276 276 288 290 286 281 286 290 292 293 292 286 272 252 248 244 240 236 232 226 222 220 220 222 221 219 220 222 225 228 227
43 62 351 324 5 349 344 302 308 290 340 330 297 291 285 258 273 283 298 310 306 310 312 313 305 291 269 251 245 243 239 234 230 228 227 223 221 217 218 222 222 222 226 229
68 45 341 26 24 13 335 2 336 307 318 277 311 287 71 282 257 31 14 3 359 353 345 333 324 306 290 267 249 242 240 236 234 232 229 225 224 220 220 221 226 219 226 222
55 1 9 34 21 357 17 338 310 300 330 313 42 295 23 305 32 21 11 8 0 357 353 349 339 324 304 281 264 247 240 237 236 234 233 231 225 226 223 225 224 228 233 223
328 358 1 36 348 329 328 311 284 272 251 312 317 272 298 32 11 357 356 356 359 359 360 357 352 338 319 290 266 256 243 238 236 235 233 232 233 233 231 228 220 223 218 223
345 320 57 311 309 337 341 318 298 170 236 234 18 319 45 25 358 342 351 356 357 358 359 5 1 355 338 310 271 256 252 242 237 237 235 234 232 232 231 226 217 222 218 218
333 13 33 9 342 333 354 15 354 3 5 225 0 347 33 30 5 344 333 349 357 1 1 6 9 3 356 341 313 264 259 253 244 238 235 235 234 235 235 235 225 219 218 217
15 336 20 344 23 289 328 3 129 283 304 295 329 251 50 8 357 347 357 357 355 358 357 1 8 9 2 356 341 306 273 261 252 242 235 232 233 231 231 231 230 221 220 214
38 283 351 334 336 33 310 31 184 227 251 252 226 175 303 7 14 6 1 2 359 359 355 352 2 7 7 359 354 338 301 269 257 244 235 231 232 230 230 227 226 219 214 218
259 309 343 302 6 16 95 5 19 352 324 309 294 61 4 3 10 5 1 3 357 359 357 354 358 4 9 4 359 353 333 302 269 249 237 233 232 230 230 225 224 219 218 210
119 115 300 338 37 323 20 48 26 148 358 305 325 285 153 24 10 357 353 355 358 355 358 354 357 3 5 5 6 1 352 326 290 261 243 235 231 227 229 223 223 219 212 209
317 155 284 278 283 255 127 121 136 124 289 244 252 250 233 16 6 357 336 340 347 7 2 1 1 4 8 6 6 5 360 348 308 267 249 237 233 226 224 225 223 221 207 209
268 314 349 345 358 1 50 329 288 252 276 239 238 268 339 328 345 343 339 333 344 351 2 356 4 6 7 9 3 2 2 356 340 296 259 247 238 229 224 225 219 210 210 202
227 203 173 205 223 242 290 272 252 159 246 277 253 282 298 299 324 327 323 336 343 345 347 1 357 356 2 3 4 359 358 358 350 332 290 255 243 235 228 220 211 204 197 196
161 205 221 242 263 272 266 271 270 253 241 248 280 283 284 289 288 302 315 334 335 343 347 354 353 357 354 357 358 359 353 352 343 342 316 290 255 234 225 218 209 203 197 196
192 254 163 274 238 258 269 264 256 255 262 253 260 267 271 256 277 300 315 325 326 327 338 341 345 349 351 355 352 356 354 346 328 314 316 294 262 247 216 206 196 196 191 193
218 191 73 268 334 328 301 237 239 225 223 218 252 258 292 286 268 315 318 317 317 328 329 331 338 342 345 346 350 350 353 349 327 314 295 280 276 244 228 207 203 208 206 211
240 173 187 271 20 307 243 268 232 230 257 261 274 291 289 278 274 316 320 314 315 317 324 327 329 333 338 342 343 344 347 347 348 315 303 264 242 235 226 217 211 209 211 208
221 204 222 226 198 294 275 259 206 184 271 249 270 284 290 300 310 303 310 318 311 318 317 323 324 329 334 339 338 336 342 343 346 347 308 283 231 227 227 227 220 215 208 202
95 197 185 109 193 237 238 249 296 122 280 247 267 277 297 306 303 293 308 310 312 311 318 322 318 321 327 333 335 335 338 337 340 345 336 287 257 233 225 226 230 221 212 207
118 174 215 224 245 273 246 251 308 104 255 261 304 299 298 289 285 296 309 311 313 313 315 318 316 316 319 323 328 331 333 337 325 331 339 317 258 239 219 225 223 226 218 210
183 179 193 93 209 274 243 204 186 240 297 304 299 296 292 298 304 308 308 308 310 311 311 312 312 312 310 313 319 321 328 328 327 317 327 330 299 254 234 222 220 217 220 213
256 209 216 197 222 244 234 249 273 296 290 293 294 298 298 297 299 306 307 308 308 309 312 312 310 306 305 309 312 315 318 320 320 321 310 320 315 292 251 232 224 224 219 213
254 221 237 252 256 259 267 272 279 286 285 291 295 296 299 295 301 302 305 307 308 308 308 307 307 305 306 307 305 306 308 309 313 316 314 303 312 301 276 244 229 228 222 216
241 179 232 249 262 273 269 269 276 288 290 294 294 293 295 295 298 301 301 302 301 301 301 301 303 303 302 302 300 300 300 303 307 309 310 309 303 296 280 263 238 225 226 226
239 246 244 256 263 263 276 283 287 284 286 289 292 297 298 295 296 297 295 296 297 299 302 303 306 306 306 306 306 303 296 301 303 305 307 306 303 295 278 266 262 240 229 230